Location: Castelbiague
(43.0361°N, 0.9246°E)
Time: 11:35:42
(UTC+00:00)

Meteor 1-4 Rocket - Pass Details

Date: 20 October 2021
Orbit: 446 x 496 km, 81.2° (Epoch: 29 November)

Event Time Altitude Azimuth Distance (km) Brightness Sun altitude
Rises 18:47:55 0° 183° (S) 2,484 6.2 -19.4°
Reaches altitude 10° 18:50:01 10° 180° (S) 1,605 5.2 -19.8°
Enters shadow 18:51:33 24° 175° (S) 992 4.0 -20.1°
